Location: �chenoz-la-M�line
(47.6009°N, 6.1354°E)
Time: 04:00:43
(UTC+00:00)

USA 215 - Pass Details

Date: 27 January 2021
Orbit: 1103 x 1105 km, 123.0° (Epoch: 14 February)

Event Time Altitude Azimuth Distance (km) Brightness Sun altitude
Rises 06:15:25 0° 78° (ENE) 3,923 7.3 -9.0°
Reaches altitude 10° 06:18:03 10° 72° (ENE) 2,965 6.4 -8.6°
Maximum altitude 06:24:02 40° 6° (N) 1,578 4.0 -7.7°
Drops below altitude 10° 06:30:01 10° 300° (WNW) 2,967 4.9 -6.7°
Enters shadow 06:30:40 - 297° (WNW) 3,198 5.0 -6.6°
